Simultaneous Nadir Overpasses (SNOs) Predictions

Prediction of SNOs between METOP-B and TERRA Satellite Orbit:

Table of predicted SNOs for the next 14.0 days since TLE Epoch: 1/28/2024
Index Date (METOP-B) Time (METOP-B) Lat,Lon (METOP-B) SZA (METOP-B ) Date (TERRA) Time (TERRA) Lat,Lon (TERRA) SZA (TERRA ) Distance(km) Time Diff (sec)
1 01/28/2024 23:29:40 80.47,-146.57 99.25 01/28/2024 23:30:00 80.47,-146.60 99.25 0.57 20
2 01/29/2024 00:20:17 -80.58, 22.14 80.58 01/29/2024 00:19:19 -80.57, 22.04 80.61 1.90 58
3 01/31/2024 14:00:49 78.98, -17.74 96.47 01/31/2024 14:02:02 78.77, -16.53 96.31 34.87 73
4 01/31/2024 14:50:41 -80.52, 163.74 81.40 01/31/2024 14:50:38 -80.51, 163.60 81.41 2.64 3
5 02/03/2024 05:21:08 -80.40, -55.36 82.35 02/03/2024 05:21:59 -80.40, -55.34 82.33 0.35 51
6 02/03/2024 06:11:44 80.51, 113.38 97.84 02/03/2024 06:11:16 80.52, 113.47 97.84 1.84 28
7 02/05/2024 20:42:09 80.44,-105.17 96.93 02/05/2024 20:42:35 80.44,-105.11 96.95 1.29 26
8 02/05/2024 21:32:47 -80.52, 63.28 82.94 02/05/2024 21:31:55 -80.53, 63.34 82.94 1.21 52
9 02/08/2024 12:03:11 -80.47,-154.99 83.83 02/08/2024 12:03:13 -80.47,-155.09 83.85 1.91 2
10 02/11/2024 02:33:36 -80.39, -13.64 84.81 02/11/2024 02:34:31 -80.38, -13.71 84.81 1.48 55



Historial Predications of SNOs between METOP-B and TERRA
